This demonstration page uses our WeatherBlox Daily Observations layout. Learn more.

Left ArrowRight Arrow

34.16533, -84.80231

Hourly Observations for August 23, 2020

Temp ( °F °C ) Dew Point ( °F °C ) Humidity (%) Winds ( mph kmh ) Pressure ( in mb ) Visibility ( mi km ) Precip ( " mm )
12:53 am 00:53 Partly Cloudy 74 23.3 70 21.1 88 88 SSE 7 11 30.00 1016 10 16 0.00 0.00
1:53 am 01:53 Clear 74 23.3 70 21.1 88 88 SSE 3 6 30.01 1016 10 16 0.00 0.00
2:53 am 02:53 Clear 73 22.8 69 20.6 87 87 Calm 30.01 1016 9 14 0.00 0.00
3:48 am 03:48 Cloudy 73 23 70 21 89 89 Calm 30.03 1017 9 14 0.00 0.00
3:53 am 03:53 Cloudy 74 23.3 70 21.1 88 88 Calm 30.02 1017 9 14 0.00 0.00
4:22 am 04:22 Mostly Cloudy 73 22.8 70 21.1 90 90 Calm 30.04 1017 9 14 0.00 0.00
4:53 am 04:53 Partly Cloudy 72 22.2 69 20.6 91 91 Calm 30.02 1017 9 14 0.00 0.00
5:53 am 05:53 Clear 72 22.2 69 20.6 91 91 Calm 30.03 1017 9 14 0.00 0.00
6:53 am 06:53 Mostly Clear with Mist and Fog 70 21.1 68 20 93 93 Calm 30.05 1018 6 10 0.00 0.00
7:23 am 07:23 Mostly Cloudy with Mist and Fog 71 21.7 69 20.6 94 94 Calm 30.09 1019 5 8 0.00 0.00
7:46 am 07:46 Cloudy 72 22.2 69 20.6 91 91 Calm 30.09 1019 7 11 0.00 0.00
7:53 am 07:53 Cloudy 73 22.8 69 20.6 87 87 Calm 30.07 1018 8 13 0.00 0.00
8:53 am 08:53 Cloudy 74 23.3 70 21.1 88 88 Calm 30.08 1019 9 14 0.00 0.00
9:53 am 09:53 Cloudy 76 24.4 70 21.1 82 82 VRB 3 6 30.09 1019 9 14 0.00 0.00
10:30 am 10:30 Cloudy 77 25 70 21.1 79 79 SSE 5 7 30.10 1019 10 16 0.00 0.00
10:53 am 10:53 Cloudy 78 25.6 70 21.1 76 76 SE 7 11 30.10 1019 10 16 0.00 0.00
11:53 am 11:53 Cloudy 80 26.7 69 20.6 69 69 ESE 5 7 30.10 1019 10 16 0.00 0.00
12:36 pm 12:36 Partly Cloudy 82 27.8 70 21.1 67 67 VRB 3 6 30.09 1019 10 16 0.00 0.00
12:53 pm 12:53 Mostly Cloudy 83 28.3 71 21.7 67 67 Calm 30.08 1019 10 16 0.00 0.00
1:53 pm 13:53 Cloudy 84 28.9 70 21.1 63 63 Calm 30.06 1018 10 16 0.00 0.00
2:53 pm 14:53 Partly Cloudy 87 30.6 71 21.7 59 59 SE 7 11 30.06 1018 10 16 0.00 0.00
3:53 pm 15:53 Mostly Sunny 87 30.6 69 20.6 55 55 SE 3 6 30.04 1017 10 16 0.00 0.00
4:53 pm 16:53 Mostly Cloudy 88 31.1 69 20.6 54 54 SSE 3 6 30.03 1017 10 16 0.00 0.00
5:53 pm 17:53 Mostly Sunny 88 31.1 69 20.6 54 54 SSE 6 9 30.04 1017 10 16 0.00 0.00
6:53 pm 18:53 Mostly Sunny 84 28.9 71 21.7 65 65 SE 6 9 30.04 1017 10 16 0.00 0.00
7:53 pm 19:53 Sunny 80 26.7 72 22.2 76 76 SE 5 7 30.04 1017 10 16 0.00 0.00
8:53 pm 20:53 Clear 77 25 71 21.7 82 82 SSE 3 6 30.06 1018 10 16 0.00 0.00
9:53 pm 21:53 Clear 76 24.4 70 21.1 82 82 Calm 30.08 1019 10 16 0.00 0.00
10:53 pm 22:53 Clear 74 23.3 70 21.1 88 88 Calm 30.09 1019 10 16 0.00 0.00
11:53 pm 23:53 Clear 74 23.3 70 21.1 88 88 Calm 30.09 1019 10 16 0.00 0.00

Powered by AerisWeather